GOBBJ EGNM-TKPK

Flight info

Callsign GOBBJ
Flight time 8h 24m
Altitude 34000
Route POL Y70 KOLID UL70 PENIL M144 BAGSO DCT RIKUL DCT LIMRI/M079F340 DCT 49N023W 46N030W 42N036W/M079F360 38N042W/M079F380 34N047W 30N051W 25N056W/M079F400 DCT RKDIA M576 OBIKE/N0453F400 M576 PJM L329 ZPATA
Aircraft B738/M-SDE2E3FGHIRWXY/LB1

Departure

Time 2026-04-29 12:34
Airport Leeds Bradford Airport (EGNM)

Arrival

Time 2026-04-29 20:58
Airport Robert L. Bradshaw International Airport (TKPK)
Time Latitude Longitude Altitude Speed Heading
2026-04-29 12:03 53.86406 -1.66238 664 ft 0 kts 304°
2026-04-29 12:29 53.86406 -1.66239 664 ft 0 kts 304°
2026-04-29 12:29 53.86426 -1.66264 664 ft 5 kts 341°
2026-04-29 12:30 53.86458 -1.66251 666 ft 5 kts 35°
2026-04-29 12:30 53.86504 -1.66172 665 ft 11 kts 47°
2026-04-29 12:30 53.86559 -1.66076 666 ft 11 kts 34°
2026-04-29 12:30 53.86627 -1.66110 665 ft 13 kts 316°
2026-04-29 12:31 53.86717 -1.66252 665 ft 22 kts 318°
2026-04-29 12:31 53.86840 -1.66440 668 ft 24 kts 318°
2026-04-29 12:31 53.86959 -1.66625 670 ft 23 kts 317°
2026-04-29 12:31 53.87075 -1.66801 678 ft 22 kts 318°
2026-04-29 12:32 53.87181 -1.66962 684 ft 16 kts 322°
2026-04-29 12:32 53.87284 -1.66995 685 ft 15 kts
2026-04-29 12:32 53.87386 -1.67018 686 ft 15 kts 319°
2026-04-29 12:32 53.87370 -1.67167 683 ft 14 kts 229°
2026-04-29 12:33 53.87312 -1.67165 681 ft 8 kts 138°
2026-04-29 12:33 53.87304 -1.67154 688 ft 4 kts 137°
2026-04-29 12:33 53.87143 -1.66905 683 ft 71 kts 137°
2026-04-29 12:33 53.86584 -1.66045 667 ft 143 kts 137°
2026-04-29 12:34 53.85749 -1.64783 1119 ft 161 kts 135°
2026-04-29 12:34 53.84923 -1.63519 2011 ft 168 kts 134°
2026-04-29 12:34 53.84004 -1.62119 2589 ft 187 kts 135°
2026-04-29 12:34 53.82949 -1.60746 3142 ft 196 kts 150°
2026-04-29 12:35 53.81567 -1.60219 3509 ft 220 kts 179°
2026-04-29 12:35 53.80076 -1.61071 4037 ft 237 kts 211°
2026-04-29 12:35 53.79036 -1.63332 4447 ft 262 kts 248°
2026-04-29 12:35 53.78646 -1.66485 4880 ft 283 kts 261°
2026-04-29 12:36 53.78383 -1.69805 5640 ft 287 kts 260°
2026-04-29 12:36 53.78105 -1.73169 6395 ft 290 kts 260°
2026-04-29 12:36 53.77815 -1.76561 7131 ft 294 kts 259°
2026-04-29 12:36 53.77490 -1.80012 7804 ft 300 kts 259°
2026-04-29 12:37 53.77146 -1.83504 8570 ft 302 kts 259°
2026-04-29 12:37 53.76799 -1.86973 9271 ft 306 kts 258°
2026-04-29 12:37 53.76434 -1.90538 9953 ft 310 kts 258°
2026-04-29 12:37 53.76062 -1.94154 10622 ft 315 kts 258°
2026-04-29 12:38 53.75676 -1.97914 10892 ft 337 kts 258°
2026-04-29 12:38 53.75262 -2.01939 11089 ft 359 kts 258°
2026-04-29 12:38 53.74820 -2.06212 11239 ft 380 kts 258°
2026-04-29 12:38 53.74314 -2.10672 11619 ft 391 kts 253°
2026-04-29 12:39 53.73339 -2.14962 12262 ft 392 kts 243°
2026-04-29 12:39 53.72180 -2.19140 12937 ft 394 kts 242°
2026-04-29 12:39 53.70993 -2.23346 13517 ft 399 kts 242°
2026-04-29 12:39 53.69803 -2.27620 14032 ft 406 kts 242°
2026-04-29 12:40 53.68593 -2.32030 14149 ft 423 kts 243°
2026-04-29 12:40 53.67356 -2.36601 14462 ft 432 kts 243°
2026-04-29 12:40 53.66113 -2.41230 15021 ft 434 kts 243°
2026-04-29 12:40 53.64866 -2.45877 15604 ft 437 kts 243°
2026-04-29 12:41 53.63604 -2.50556 16085 ft 441 kts 243°
2026-04-29 12:41 53.62331 -2.55278 16578 ft 444 kts 244°
2026-04-29 12:41 53.61133 -2.60102 17028 ft 449 kts 245°
2026-04-29 12:41 53.59965 -2.65005 17486 ft 452 kts 245°
2026-04-29 12:42 53.58804 -2.69942 17976 ft 456 kts 248°
2026-04-29 12:42 53.57981 -2.75120 18411 ft 462 kts 258°
2026-04-29 12:42 53.57618 -2.80511 18859 ft 466 kts 267°
2026-04-29 12:42 53.57756 -2.85978 19277 ft 470 kts 275°
2026-04-29 12:43 53.58095 -2.91458 19735 ft 472 kts 276°
2026-04-29 12:43 53.58426 -2.96967 20166 ft 475 kts 275°
2026-04-29 12:43 53.58713 -3.02523 20570 ft 477 kts 274°
2026-04-29 12:43 53.58983 -3.08111 20943 ft 481 kts 274°
2026-04-29 12:44 53.59260 -3.13733 21304 ft 483 kts 274°
2026-04-29 12:44 53.59539 -3.19378 21712 ft 485 kts 274°
2026-04-29 12:44 53.59804 -3.25047 22040 ft 488 kts 274°
2026-04-29 12:44 53.60059 -3.30757 22364 ft 491 kts 274°
2026-04-29 12:45 53.60311 -3.36498 22698 ft 493 kts 274°
2026-04-29 12:45 53.60562 -3.42264 23031 ft 495 kts 274°
2026-04-29 12:45 53.60814 -3.48057 23355 ft 497 kts 274°
2026-04-29 12:45 53.61066 -3.53873 23667 ft 499 kts 274°
2026-04-29 12:46 53.61318 -3.59713 23955 ft 501 kts 274°
2026-04-29 12:46 53.61567 -3.65579 24236 ft 503 kts 274°
2026-04-29 12:46 53.61818 -3.71470 24517 ft 505 kts 274°
2026-04-29 12:46 53.62069 -3.77304 24785 ft 507 kts 274°
2026-04-29 12:47 53.62326 -3.83246 25032 ft 510 kts 274°
2026-04-29 12:47 53.62580 -3.89213 25303 ft 512 kts 274°
2026-04-29 12:47 53.62831 -3.95199 25581 ft 513 kts 274°
2026-04-29 12:47 53.63072 -4.01205 25843 ft 515 kts 273°
2026-04-29 12:48 53.63307 -4.07232 26055 ft 517 kts 273°
2026-04-29 12:48 53.63539 -4.13293 26270 ft 519 kts 273°
2026-04-29 12:48 53.63767 -4.19362 26476 ft 521 kts 273°
2026-04-29 12:48 53.63994 -4.25471 26737 ft 522 kts 273°
2026-04-29 12:49 53.64218 -4.31562 27051 ft 521 kts 273°
2026-04-29 12:49 53.64437 -4.37647 27368 ft 520 kts 273°
2026-04-29 12:49 53.64651 -4.43739 27658 ft 520 kts 273°
2026-04-29 12:49 53.64862 -4.49824 27938 ft 520 kts 273°
2026-04-29 12:50 53.65071 -4.55903 28240 ft 520 kts 273°
2026-04-29 12:50 53.65277 -4.61986 28488 ft 520 kts 273°
2026-04-29 12:50 53.65481 -4.68082 28715 ft 521 kts 273°
2026-04-29 12:50 53.65684 -4.74185 28975 ft 521 kts 272°
2026-04-29 12:51 53.65882 -4.80284 29274 ft 521 kts 272°
2026-04-29 12:51 53.66079 -4.86386 29539 ft 521 kts 272°
2026-04-29 12:51 53.66279 -4.92487 29811 ft 521 kts 272°
2026-04-29 12:51 53.66481 -4.98585 30047 ft 522 kts 272°
2026-04-29 12:52 53.66682 -5.04693 30296 ft 522 kts 272°
2026-04-29 12:52 53.66879 -5.10796 30596 ft 520 kts 272°
2026-04-29 12:52 53.67069 -5.16879 30891 ft 519 kts 272°
2026-04-29 12:52 53.67248 -5.22963 31149 ft 519 kts 272°
2026-04-29 12:53 53.67421 -5.29038 31354 ft 520 kts 272°
2026-04-29 12:53 53.67592 -5.35129 31573 ft 520 kts 272°
2026-04-29 12:53 53.67762 -5.41213 31842 ft 519 kts 272°
2026-04-29 12:53 53.67762 -5.47282 32127 ft 517 kts 264°
2026-04-29 12:54 53.67293 -5.53279 32366 ft 515 kts 256°
2026-04-29 12:54 53.66320 -5.59055 32576 ft 512 kts 248°
2026-04-29 12:54 53.65134 -5.64701 32833 ft 510 kts 247°
2026-04-29 12:54 53.63925 -5.70325 33016 ft 511 kts 247°
2026-04-29 12:55 53.62716 -5.75956 33196 ft 511 kts 247°
2026-04-29 12:55 53.61518 -5.81588 33431 ft 510 kts 248°
2026-04-29 12:55 53.60335 -5.87209 33671 ft 509 kts 248°
2026-04-29 12:55 53.59160 -5.92831 33848 ft 509 kts 248°
2026-04-29 12:56 53.57986 -5.98461 33995 ft 510 kts 248°
2026-04-29 12:56 53.56812 -6.04091 34212 ft 510 kts 248°
2026-04-29 12:56 53.55637 -6.09715 34360 ft 510 kts 248°
2026-04-29 12:57 53.53288 -6.20908 34351 ft 510 kts 248°
2026-04-29 12:57 53.50918 -6.32118 34351 ft 509 kts 248°
2026-04-29 12:58 53.48541 -6.43294 34348 ft 508 kts 247°
2026-04-29 12:58 53.46155 -6.54447 34349 ft 507 kts 247°
2026-04-29 12:59 53.43763 -6.65574 34352 ft 508 kts 247°
2026-04-29 12:59 53.41354 -6.76717 34351 ft 508 kts 247°
2026-04-29 13:00 53.38936 -6.87850 34351 ft 509 kts 247°
2026-04-29 13:00 53.36501 -6.98980 34351 ft 509 kts 247°
2026-04-29 13:01 53.34054 -7.10113 34343 ft 510 kts 246°
2026-04-29 13:01 53.31591 -7.21256 34342 ft 511 kts 246°
2026-04-29 13:02 53.29116 -7.32398 34340 ft 511 kts 246°
2026-04-29 13:02 53.26630 -7.43541 34327 ft 512 kts 246°
2026-04-29 13:03 53.24131 -7.54672 34316 ft 512 kts 246°
2026-04-29 13:03 53.21622 -7.65789 34311 ft 512 kts 246°
2026-04-29 13:04 53.19102 -7.76896 34308 ft 512 kts 246°
2026-04-29 13:04 53.16573 -7.87989 34305 ft 512 kts 246°
2026-04-29 13:05 53.14033 -7.99066 34302 ft 512 kts 246°
2026-04-29 13:05 53.11483 -8.10139 34297 ft 512 kts 246°
2026-04-29 13:06 53.08920 -8.21204 34290 ft 513 kts 246°
2026-04-29 13:06 53.06346 -8.32261 34291 ft 513 kts 246°
2026-04-29 13:07 53.04478 -8.43737 34298 ft 516 kts 256°
2026-04-29 13:07 53.03044 -8.55331 34282 ft 516 kts 257°
2026-04-29 13:08 53.01582 -8.67101 34273 ft 517 kts 256°
2026-04-29 13:08 53.00086 -8.78690 34276 ft 517 kts 256°
2026-04-29 13:09 52.98543 -8.90353 34276 ft 518 kts 256°
2026-04-29 13:09 52.96983 -9.02017 34267 ft 518 kts 256°
2026-04-29 13:10 52.95414 -9.13675 34252 ft 518 kts 256°
2026-04-29 13:10 52.93834 -9.25339 34247 ft 518 kts 256°
2026-04-29 13:11 52.92243 -9.36994 34236 ft 518 kts 255°
2026-04-29 13:11 52.90638 -9.48632 34235 ft 518 kts 255°
2026-04-29 13:12 52.89025 -9.60257 34242 ft 518 kts 255°
2026-04-29 13:12 52.87405 -9.71874 34239 ft 518 kts 255°
2026-04-29 13:13 52.85772 -9.83485 34227 ft 518 kts 255°
2026-04-29 13:13 52.84403 -9.93138 34228 ft 519 kts 255°
2026-04-29 13:14 52.82742 -10.04754 34235 ft 519 kts 255°
2026-04-29 13:14 52.81071 -10.16366 34232 ft 519 kts 255°
2026-04-29 13:15 52.79388 -10.27974 34237 ft 520 kts 255°
2026-04-29 13:15 52.77691 -10.39594 34237 ft 520 kts 255°
2026-04-29 13:16 52.75985 -10.51197 34227 ft 520 kts 255°
2026-04-29 13:16 52.74267 -10.62793 34233 ft 520 kts 255°
2026-04-29 13:17 52.72534 -10.74381 34234 ft 520 kts 255°
2026-04-29 13:17 52.70793 -10.85950 34224 ft 520 kts 255°
2026-04-29 13:18 52.69043 -10.97506 34219 ft 520 kts 255°
2026-04-29 13:18 52.67279 -11.09063 34225 ft 520 kts 255°
2026-04-29 13:19 52.65504 -11.20604 34218 ft 519 kts 255°
2026-04-29 13:19 52.63722 -11.32120 34218 ft 519 kts 255°
2026-04-29 13:20 52.61928 -11.43634 34220 ft 520 kts 255°
2026-04-29 13:20 52.60130 -11.55078 34216 ft 520 kts 255°
2026-04-29 13:21 52.58310 -11.66593 34224 ft 521 kts 255°
2026-04-29 13:21 52.56472 -11.78127 34218 ft 522 kts 255°
2026-04-29 13:22 52.54620 -11.89674 34224 ft 524 kts 255°
2026-04-29 13:22 52.52753 -12.01254 34230 ft 525 kts 254°
2026-04-29 13:23 52.50869 -12.12836 34218 ft 525 kts 255°
2026-04-29 13:23 52.48974 -12.24419 34216 ft 525 kts 254°
2026-04-29 13:24 52.47068 -12.35982 34230 ft 525 kts 254°
2026-04-29 13:24 52.45153 -12.47528 34229 ft 524 kts 254°
2026-04-29 13:25 52.43232 -12.59032 34219 ft 523 kts 254°
2026-04-29 13:25 52.40336 -12.76216 34217 ft 521 kts 254°
2026-04-29 13:26 52.38401 -12.87616 34223 ft 519 kts 254°
2026-04-29 13:26 52.36462 -12.98963 34212 ft 517 kts 254°
2026-04-29 13:27 52.34530 -13.10195 34213 ft 516 kts 254°
2026-04-29 13:27 52.32578 -13.21467 34211 ft 515 kts 254°
2026-04-29 13:28 52.30620 -13.32710 34212 ft 514 kts 254°
2026-04-29 13:28 52.28654 -13.43925 34206 ft 513 kts 254°
2026-04-29 13:29 52.26679 -13.55114 34215 ft 513 kts 254°
2026-04-29 13:29 52.24696 -13.66284 34209 ft 512 kts 254°
2026-04-29 13:30 52.22702 -13.77448 34207 ft 513 kts 254°
2026-04-29 13:30 52.20693 -13.88626 34208 ft 514 kts 254°
2026-04-29 13:31 52.18669 -13.99821 34206 ft 516 kts 254°
2026-04-29 13:31 52.16629 -14.11034 34214 ft 517 kts 254°
2026-04-29 13:32 52.14573 -14.22267 34217 ft 518 kts 254°
2026-04-29 13:32 52.12518 -14.33419 34202 ft 518 kts 254°
2026-04-29 13:33 52.10441 -14.44628 34199 ft 517 kts 253°
2026-04-29 13:33 52.08356 -14.55815 34194 ft 516 kts 253°
2026-04-29 13:34 52.06267 -14.66957 34194 ft 514 kts 253°
2026-04-29 13:34 52.04176 -14.78040 34191 ft 512 kts 253°
2026-04-29 13:35 52.02089 -14.89047 34191 ft 509 kts 253°
2026-04-29 13:35 51.99962 -14.99970 34168 ft 507 kts 250°
2026-04-29 13:36 51.97399 -15.10570 34143 ft 503 kts 259°
2026-04-29 13:36 51.96918 -15.16145 34158 ft 497 kts 270°
2026-04-29 13:36 51.96471 -15.21706 34123 ft 502 kts 253°
2026-04-29 13:37 51.93414 -15.31857 34151 ft 503 kts 242°
2026-04-29 13:37 51.90017 -15.41765 34151 ft 504 kts 242°
2026-04-29 13:38 51.86671 -15.51737 34147 ft 504 kts 242°
2026-04-29 13:38 51.83384 -15.61751 34151 ft 504 kts 243°
2026-04-29 13:39 51.80111 -15.71768 34145 ft 504 kts 243°
2026-04-29 13:39 51.76851 -15.81697 34145 ft 503 kts 242°
2026-04-29 13:40 51.73562 -15.91657 34146 ft 503 kts 242°
2026-04-29 13:40 51.70263 -16.01589 34148 ft 502 kts 242°
2026-04-29 13:41 51.66960 -16.11495 34149 ft 501 kts 242°
2026-04-29 13:41 51.63653 -16.21379 34137 ft 501 kts 242°
2026-04-29 13:42 51.60345 -16.31229 34138 ft 500 kts 242°
2026-04-29 13:42 51.57031 -16.41062 34139 ft 500 kts 242°
2026-04-29 13:43 51.53711 -16.50868 34140 ft 499 kts 242°
2026-04-29 13:43 51.50389 -16.60645 34137 ft 499 kts 242°
2026-04-29 13:44 51.47060 -16.70406 34127 ft 498 kts 242°
2026-04-29 13:44 51.43731 -16.80124 34129 ft 497 kts 242°
2026-04-29 13:45 51.40395 -16.89813 34127 ft 496 kts 242°
2026-04-29 13:45 51.37060 -16.99469 34128 ft 495 kts 242°
2026-04-29 13:46 51.33722 -17.09097 34130 ft 494 kts 242°
2026-04-29 13:46 51.30389 -17.18688 34128 ft 493 kts 242°
2026-04-29 13:47 51.27054 -17.28242 34126 ft 492 kts 241°
2026-04-29 13:47 51.23713 -17.37772 34119 ft 491 kts 241°
2026-04-29 13:48 51.20374 -17.47260 34122 ft 490 kts 241°
2026-04-29 13:48 51.17058 -17.56647 34116 ft 489 kts 241°
2026-04-29 13:49 51.13717 -17.66067 34122 ft 488 kts 241°
2026-04-29 13:49 51.10374 -17.75467 34116 ft 488 kts 241°
2026-04-29 13:50 51.07026 -17.84840 34120 ft 487 kts 241°
2026-04-29 13:50 51.03679 -17.94192 34118 ft 486 kts 241°
2026-04-29 13:51 51.00324 -18.03528 34112 ft 487 kts 241°
2026-04-29 13:51 50.96969 -18.12826 34107 ft 485 kts 240°
2026-04-29 13:52 50.93613 -18.22093 34105 ft 483 kts 240°
2026-04-29 13:52 50.90260 -18.31313 34107 ft 482 kts 240°
2026-04-29 13:53 50.86908 -18.40496 34113 ft 481 kts 240°
2026-04-29 13:53 50.83553 -18.49650 34108 ft 480 kts 240°
2026-04-29 13:54 50.80200 -18.58777 34111 ft 480 kts 240°
2026-04-29 13:54 50.76841 -18.67895 34106 ft 480 kts 240°
2026-04-29 13:55 50.73477 -18.76993 34103 ft 480 kts 240°
2026-04-29 13:55 50.70105 -18.86078 34101 ft 479 kts 240°
2026-04-29 13:56 50.66731 -18.95138 34102 ft 479 kts 240°
2026-04-29 13:56 50.63353 -19.04179 34102 ft 478 kts 240°
2026-04-29 13:57 50.59971 -19.13194 34097 ft 478 kts 239°
2026-04-29 13:57 50.57158 -19.20668 34064 ft 478 kts 239°
2026-04-29 13:58 50.53198 -19.31156 34049 ft 476 kts 239°
2026-04-29 13:58 50.49810 -19.40091 34046 ft 475 kts 239°
2026-04-29 13:59 50.46425 -19.48985 34038 ft 474 kts 239°
2026-04-29 13:59 50.43063 -19.57794 34042 ft 473 kts 239°
2026-04-29 14:00 50.39677 -19.66634 34038 ft 473 kts 239°
2026-04-29 14:00 50.36288 -19.75457 34035 ft 472 kts 239°
2026-04-29 14:01 50.32896 -19.84253 34032 ft 471 kts 239°
2026-04-29 14:01 50.29505 -19.93030 34029 ft 472 kts 239°
2026-04-29 14:02 50.26118 -20.01897 34039 ft 478 kts 239°
2026-04-29 14:02 50.22692 -20.10812 34028 ft 479 kts 238°
2026-04-29 14:03 50.19234 -20.19697 34025 ft 479 kts 238°
2026-04-29 14:03 50.15760 -20.28556 34029 ft 478 kts 238°
2026-04-29 14:04 50.12867 -20.35901 34019 ft 478 kts 238°
2026-04-29 14:04 50.09383 -20.44723 34020 ft 478 kts 238°
2026-04-29 14:05 50.05896 -20.53522 34010 ft 477 kts 238°
2026-04-29 14:05 50.02411 -20.62286 34010 ft 476 kts 238°
2026-04-29 14:06 49.98927 -20.71021 34009 ft 474 kts 238°
2026-04-29 14:06 49.95445 -20.79717 34011 ft 473 kts 238°
2026-04-29 14:07 49.91965 -20.88381 34006 ft 473 kts 237°
2026-04-29 14:07 49.88485 -20.97016 34001 ft 472 kts 237°
2026-04-29 14:08 49.85030 -21.05565 33999 ft 471 kts 237°
2026-04-29 14:08 49.81554 -21.14139 34001 ft 470 kts 237°
2026-04-29 14:09 49.78078 -21.22682 33997 ft 468 kts 237°
2026-04-29 14:09 49.74605 -21.31195 33994 ft 467 kts 237°
2026-04-29 14:10 49.71133 -21.39678 33988 ft 467 kts 237°
2026-04-29 14:10 49.67659 -21.48135 33991 ft 465 kts 237°
2026-04-29 14:11 49.64189 -21.56555 33990 ft 465 kts 236°
2026-04-29 14:11 49.60717 -21.64956 33983 ft 464 kts 236°
2026-04-29 14:12 49.57242 -21.73345 33984 ft 464 kts 236°
2026-04-29 14:12 49.53764 -21.81707 33980 ft 464 kts 236°
2026-04-29 14:13 49.50283 -21.90050 33980 ft 463 kts 236°
2026-04-29 14:13 49.46795 -21.98386 33983 ft 464 kts 236°
2026-04-29 14:14 49.43299 -22.06717 33981 ft 463 kts 236°
2026-04-29 14:14 49.39804 -22.15022 33969 ft 463 kts 236°
2026-04-29 14:15 49.36306 -22.23305 33972 ft 463 kts 236°
2026-04-29 14:15 49.32802 -22.31576 33972 ft 462 kts 236°
2026-04-29 14:16 49.29291 -22.39834 33972 ft 462 kts 236°
2026-04-29 14:16 49.25799 -22.48028 33973 ft 463 kts 236°
2026-04-29 14:17 49.22275 -22.56270 33967 ft 463 kts 236°
2026-04-29 14:17 49.18745 -22.64502 33959 ft 463 kts 235°
2026-04-29 14:18 49.15206 -22.72731 33951 ft 463 kts 235°
2026-04-29 14:18 49.11661 -22.80945 33956 ft 463 kts 235°
2026-04-29 14:19 49.08108 -22.89155 33961 ft 463 kts 235°
2026-04-29 14:19 49.04552 -22.97349 33948 ft 463 kts 235°
2026-04-29 14:20 49.01026 -23.05561 33943 ft 464 kts 237°
2026-04-29 14:20 48.97800 -23.14075 33948 ft 464 kts 239°
2026-04-29 14:21 48.94659 -23.22656 33950 ft 464 kts 239°
2026-04-29 14:21 48.91479 -23.31197 33941 ft 464 kts 239°
2026-04-29 14:22 48.88264 -23.39691 33943 ft 463 kts 238°
2026-04-29 14:22 48.85034 -23.48154 33939 ft 463 kts 238°
2026-04-29 14:23 48.81797 -23.56605 33932 ft 463 kts 238°
2026-04-29 14:23 48.78561 -23.65040 33929 ft 463 kts 238°
2026-04-29 14:24 48.75320 -23.73462 33925 ft 462 kts 238°
2026-04-29 14:24 48.72091 -23.81818 33922 ft 462 kts 238°
2026-04-29 14:25 48.68837 -23.90213 33914 ft 462 kts 238°
2026-04-29 14:25 48.65585 -23.98577 33918 ft 461 kts 238°
2026-04-29 14:26 48.62329 -24.06928 33919 ft 461 kts 237°
2026-04-29 14:26 48.59069 -24.15264 33916 ft 460 kts 237°
2026-04-29 14:27 48.55804 -24.23585 33918 ft 460 kts 237°
2026-04-29 14:28 48.50899 -24.36038 33907 ft 460 kts 237°
2026-04-29 14:28 48.47623 -24.44323 33908 ft 460 kts 237°
2026-04-29 14:29 48.44342 -24.52592 33908 ft 460 kts 237°
2026-04-29 14:29 48.41056 -24.60856 33907 ft 460 kts 237°
2026-04-29 14:30 48.37765 -24.69098 33907 ft 460 kts 237°
2026-04-29 14:30 48.34466 -24.77336 33903 ft 460 kts 237°
2026-04-29 14:31 48.31162 -24.85564 33866 ft 460 kts 236°
2026-04-29 14:31 48.27845 -24.93798 33823 ft 461 kts 236°
2026-04-29 14:32 48.24521 -25.02019 33802 ft 460 kts 236°
2026-04-29 14:32 48.21197 -25.10224 33796 ft 460 kts 236°
2026-04-29 14:33 48.17867 -25.18418 33794 ft 460 kts 236°
2026-04-29 14:33 48.14536 -25.26587 33803 ft 460 kts 236°
2026-04-29 14:34 48.11195 -25.34755 33805 ft 460 kts 236°
2026-04-29 14:34 48.07871 -25.42856 33794 ft 460 kts 236°
2026-04-29 14:35 48.04516 -25.51008 33789 ft 461 kts 235°
2026-04-29 14:35 48.01154 -25.59155 33785 ft 460 kts 235°
2026-04-29 14:36 47.97783 -25.67294 33786 ft 461 kts 235°
2026-04-29 14:36 47.94409 -25.75422 33791 ft 461 kts 235°
2026-04-29 14:37 47.91026 -25.83547 33785 ft 461 kts 235°
2026-04-29 14:37 47.87639 -25.91654 33786 ft 461 kts 235°
2026-04-29 14:38 47.84244 -25.99755 33786 ft 461 kts 235°
2026-04-29 14:38 47.80844 -26.07846 33787 ft 461 kts 234°
2026-04-29 14:39 47.77438 -26.15927 33787 ft 461 kts 234°
2026-04-29 14:39 47.74027 -26.23995 33785 ft 461 kts 234°
2026-04-29 14:40 47.70609 -26.32056 33787 ft 461 kts 234°
2026-04-29 14:40 47.67185 -26.40107 33786 ft 461 kts 234°
2026-04-29 14:41 47.63759 -26.48139 33787 ft 461 kts 234°
2026-04-29 14:41 47.60328 -26.56164 33788 ft 461 kts 234°
2026-04-29 14:42 47.56911 -26.64126 33787 ft 461 kts 234°
2026-04-29 14:42 47.53467 -26.72130 33785 ft 461 kts 234°
2026-04-29 14:43 47.50017 -26.80127 33791 ft 461 kts 234°
2026-04-29 14:43 47.46558 -26.88118 33784 ft 461 kts 234°
2026-04-29 14:44 47.43096 -26.96090 33786 ft 461 kts 234°
2026-04-29 14:44 47.39632 -27.04049 33786 ft 461 kts 234°
2026-04-29 14:45 47.36161 -27.11998 33787 ft 460 kts 234°
2026-04-29 14:45 47.32689 -27.19928 33765 ft 461 kts 234°
2026-04-29 14:46 47.29210 -27.27851 33781 ft 460 kts 234°
2026-04-29 14:46 47.25726 -27.35762 33783 ft 460 kts 234°
2026-04-29 14:47 47.22235 -27.43666 33783 ft 460 kts 234°
2026-04-29 14:47 47.18741 -27.51552 33779 ft 460 kts 234°
2026-04-29 14:48 47.15242 -27.59432 33777 ft 460 kts 234°
2026-04-29 14:48 47.11759 -27.67247 33768 ft 460 kts 234°
2026-04-29 14:49 47.08227 -27.75160 33781 ft 460 kts 234°
2026-04-29 14:49 47.04736 -27.82950 33779 ft 460 kts 234°
2026-04-29 14:50 47.01215 -27.90782 33781 ft 460 kts 233°
2026-04-29 14:50 46.97689 -27.98610 33782 ft 460 kts 233°
2026-04-29 14:51 46.94159 -28.06422 33781 ft 460 kts 233°
2026-04-29 14:51 46.90624 -28.14222 33779 ft 460 kts 233°
2026-04-29 14:52 46.87087 -28.22005 33778 ft 460 kts 233°
2026-04-29 14:52 46.83548 -28.29772 33772 ft 459 kts 233°
2026-04-29 14:53 46.80010 -28.37516 33783 ft 458 kts 233°
2026-04-29 14:53 46.76464 -28.45251 33777 ft 458 kts 233°
2026-04-29 14:54 46.73521 -28.51659 33768 ft 458 kts 233°
2026-04-29 14:54 46.69972 -28.59364 33781 ft 458 kts 232°
2026-04-29 14:55 46.66419 -28.67056 33778 ft 458 kts 232°
2026-04-29 14:55 46.62857 -28.74748 33784 ft 458 kts 232°
2026-04-29 14:56 46.59291 -28.82427 33780 ft 458 kts 232°
2026-04-29 14:56 46.55720 -28.90097 33780 ft 458 kts 232°
2026-04-29 14:57 46.52144 -28.97756 33782 ft 458 kts 232°
2026-04-29 14:57 46.48562 -29.05403 33780 ft 458 kts 232°
2026-04-29 14:58 46.45003 -29.12982 33778 ft 458 kts 232°
2026-04-29 14:58 46.41419 -29.20596 33771 ft 457 kts 232°
2026-04-29 14:59 46.37832 -29.28196 33783 ft 457 kts 231°
2026-04-29 14:59 46.34240 -29.35784 33773 ft 457 kts 231°
2026-04-29 15:00 46.30643 -29.43363 33774 ft 457 kts 231°
2026-04-29 15:00 46.27041 -29.50934 33782 ft 456 kts 231°
2026-04-29 15:01 46.23437 -29.58484 33781 ft 456 kts 231°
2026-04-29 15:01 46.19830 -29.66021 33777 ft 456 kts 231°
2026-04-29 15:02 46.16219 -29.73547 33767 ft 456 kts 231°
2026-04-29 15:02 46.12602 -29.81065 33784 ft 456 kts 231°
2026-04-29 15:03 46.08983 -29.88573 33772 ft 456 kts 231°
2026-04-29 15:03 46.05361 -29.96074 33776 ft 456 kts 231°
2026-04-29 15:04 46.01702 -30.03525 33774 ft 455 kts 227°
2026-04-29 15:04 45.97645 -30.10466 33784 ft 453 kts 224°
2026-04-29 15:05 45.93503 -30.17205 33781 ft 452 kts 224°
2026-04-29 15:05 45.89320 -30.24047 33777 ft 453 kts 224°
2026-04-29 15:06 45.85213 -30.30823 33782 ft 453 kts 225°
2026-04-29 15:06 45.81086 -30.37649 33778 ft 453 kts 225°
2026-04-29 15:07 45.76961 -30.44458 33780 ft 452 kts 224°
2026-04-29 15:07 45.72828 -30.51262 33783 ft 453 kts 224°
2026-04-29 15:08 45.68693 -30.58052 33783 ft 452 kts 224°
2026-04-29 15:08 45.64555 -30.64831 33781 ft 452 kts 224°
2026-04-29 15:09 45.60414 -30.71593 33763 ft 452 kts 224°
2026-04-29 15:09 45.56274 -30.78341 33782 ft 451 kts 224°
2026-04-29 15:10 45.52137 -30.85072 33769 ft 451 kts 224°
2026-04-29 15:10 45.47995 -30.91787 33762 ft 452 kts 224°
2026-04-29 15:11 45.43835 -30.98513 33786 ft 453 kts 224°
2026-04-29 15:11 45.39664 -31.05247 33780 ft 454 kts 224°
2026-04-29 15:12 45.35482 -31.11983 33782 ft 454 kts 224°
2026-04-29 15:12 45.31292 -31.18712 33775 ft 455 kts 223°
2026-04-29 15:13 45.27094 -31.25438 33780 ft 455 kts 223°
2026-04-29 15:13 45.22891 -31.32156 33782 ft 455 kts 223°
2026-04-29 15:14 45.18685 -31.38863 33781 ft 455 kts 223°
2026-04-29 15:14 45.14477 -31.45558 33777 ft 455 kts 223°
2026-04-29 15:15 45.10266 -31.52241 33779 ft 455 kts 223°
2026-04-29 15:15 45.06081 -31.58866 33782 ft 454 kts 223°
2026-04-29 15:16 45.01866 -31.65524 33801 ft 455 kts 223°
2026-04-29 15:16 44.97644 -31.72175 33814 ft 455 kts 222°
2026-04-29 15:17 44.93419 -31.78810 33843 ft 454 kts 222°
2026-04-29 15:17 44.89193 -31.85439 33854 ft 454 kts 222°
2026-04-29 15:18 44.84959 -31.92065 33852 ft 455 kts 222°
2026-04-29 15:18 44.80715 -31.98689 33851 ft 456 kts 222°
2026-04-29 15:19 44.76456 -32.05316 33852 ft 457 kts 221°
2026-04-29 15:19 44.72191 -32.11943 33855 ft 457 kts 221°
2026-04-29 15:20 44.67916 -32.18570 33849 ft 458 kts 221°
2026-04-29 15:20 44.63635 -32.25190 33852 ft 458 kts 221°
2026-04-29 15:21 44.59351 -32.31797 33853 ft 458 kts 221°
2026-04-29 15:21 44.55060 -32.38394 33853 ft 459 kts 221°
2026-04-29 15:22 44.50745 -32.44952 33868 ft 457 kts 221°
2026-04-29 15:22 44.46421 -32.51504 33862 ft 459 kts 221°
2026-04-29 15:23 44.42113 -32.58103 33834 ft 458 kts 222°
2026-04-29 15:23 44.37847 -32.64718 33849 ft 458 kts 222°
2026-04-29 15:24 44.33610 -32.71214 33839 ft 454 kts 221°
2026-04-29 15:24 44.29293 -32.77707 33838 ft 458 kts 221°
2026-04-29 15:25 44.24967 -32.84238 33861 ft 459 kts 222°
2026-04-29 15:25 44.20677 -32.90783 33849 ft 455 kts 221°
2026-04-29 15:26 44.16404 -32.97203 33852 ft 451 kts 220°
2026-04-29 15:26 44.12122 -33.03577 33834 ft 450 kts 220°
2026-04-29 15:27 44.07817 -33.09952 33840 ft 453 kts 222°
2026-04-29 15:27 44.03595 -33.16501 33850 ft 454 kts 222°
2026-04-29 15:28 43.99281 -33.22943 33825 ft 455 kts 220°
2026-04-29 15:28 43.94904 -33.29331 33843 ft 459 kts 222°
2026-04-29 15:29 43.90544 -33.35852 33860 ft 463 kts 221°
2026-04-29 15:30 43.81724 -33.48928 33848 ft 466 kts 222°
2026-04-29 15:30 43.77281 -33.55443 33847 ft 466 kts 222°
2026-04-29 15:31 43.72891 -33.61938 33836 ft 460 kts 222°
2026-04-29 15:31 43.68497 -33.68304 33844 ft 458 kts 221°
2026-04-29 15:32 43.64151 -33.74760 33843 ft 460 kts 221°
2026-04-29 15:32 43.59778 -33.81215 33862 ft 462 kts 222°
2026-04-29 15:33 43.55349 -33.87621 33843 ft 464 kts 221°
2026-04-29 15:33 43.50839 -33.94042 33824 ft 467 kts 221°
2026-04-29 15:34 43.46389 -34.00535 33805 ft 467 kts 222°
2026-04-29 15:34 43.41957 -34.07020 33827 ft 465 kts 221°
2026-04-29 15:35 43.37454 -34.13420 33835 ft 468 kts 222°
2026-04-29 15:35 43.32982 -34.19917 33840 ft 468 kts 223°
2026-04-29 15:36 43.28550 -34.26360 33842 ft 467 kts 223°
2026-04-29 15:36 43.24075 -34.32807 33833 ft 466 kts 223°
2026-04-29 15:37 43.19589 -34.39235 33833 ft 466 kts 223°
2026-04-29 15:37 43.15102 -34.45650 33835 ft 466 kts 223°
2026-04-29 15:38 43.10608 -34.52055 33834 ft 466 kts 223°
2026-04-29 15:38 43.06106 -34.58459 33834 ft 467 kts 223°
2026-04-29 15:39 43.01597 -34.64858 33833 ft 468 kts 223°
2026-04-29 15:39 42.97079 -34.71258 33834 ft 468 kts 223°
2026-04-29 15:40 42.92549 -34.77644 33835 ft 468 kts 223°
2026-04-29 15:40 42.87985 -34.84040 34155 ft 470 kts 224°
2026-04-29 15:40 42.85718 -34.87221 34470 ft 467 kts 224°
2026-04-29 15:41 42.83457 -34.90395 34718 ft 466 kts 224°
2026-04-29 15:41 42.81196 -34.93569 34896 ft 467 kts 224°
2026-04-29 15:41 42.78931 -34.96748 35076 ft 468 kts 224°
2026-04-29 15:41 42.76666 -34.99925 35292 ft 467 kts 225°
2026-04-29 15:42 42.74404 -35.03093 35499 ft 466 kts 225°
2026-04-29 15:42 42.72142 -35.06258 35693 ft 467 kts 225°
2026-04-29 15:42 42.69878 -35.09421 35832 ft 467 kts 225°
2026-04-29 15:43 42.65329 -35.15769 35837 ft 469 kts 225°
2026-04-29 15:43 42.61551 -35.21030 35833 ft 467 kts 225°
2026-04-29 15:44 42.57026 -35.27320 35841 ft 464 kts 225°
2026-04-29 15:44 42.52517 -35.33573 35844 ft 463 kts 225°
2026-04-29 15:45 42.48015 -35.39795 35845 ft 462 kts 225°
2026-04-29 15:45 42.43515 -35.46012 35846 ft 462 kts 226°
2026-04-29 15:46 42.39006 -35.52225 35847 ft 463 kts 226°
2026-04-29 15:46 42.34475 -35.58453 35843 ft 465 kts 226°
2026-04-29 15:47 42.29960 -35.64645 35837 ft 466 kts 226°
2026-04-29 15:47 42.25398 -35.70887 35848 ft 468 kts 226°
2026-04-29 15:48 42.20822 -35.77130 35842 ft 468 kts 226°
2026-04-29 15:48 42.16244 -35.83370 35844 ft 468 kts 226°
2026-04-29 15:49 42.11661 -35.89601 35844 ft 468 kts 226°
2026-04-29 15:49 42.07075 -35.95829 35842 ft 468 kts 227°
2026-04-29 15:50 42.02484 -36.02046 35843 ft 468 kts 227°
2026-04-29 15:50 41.98153 -36.08551 35846 ft 467 kts 233°
2026-04-29 15:51 41.94144 -36.15403 35845 ft 466 kts 233°
2026-04-29 15:51 41.90132 -36.22248 35842 ft 466 kts 233°
2026-04-29 15:52 41.86062 -36.29023 35841 ft 466 kts 232°
2026-04-29 15:52 41.81964 -36.35752 35841 ft 465 kts 233°
2026-04-29 15:53 41.77867 -36.42451 35841 ft 464 kts 233°
2026-04-29 15:53 41.73775 -36.49130 35843 ft 463 kts 233°
2026-04-29 15:54 41.69691 -36.55785 35847 ft 462 kts 233°
2026-04-29 15:54 41.65617 -36.62410 35856 ft 460 kts 233°
2026-04-29 15:55 41.61552 -36.69006 35854 ft 459 kts 234°
2026-04-29 15:55 41.57498 -36.75571 35846 ft 457 kts 234°
2026-04-29 15:56 41.53484 -36.82056 35848 ft 456 kts 234°
2026-04-29 15:56 41.49451 -36.88557 35854 ft 454 kts 234°
2026-04-29 15:57 41.45426 -36.95031 35848 ft 453 kts 234°
2026-04-29 15:57 41.41410 -37.01479 35849 ft 451 kts 235°
2026-04-29 15:58 41.37402 -37.07901 35848 ft 450 kts 235°
2026-04-29 15:58 41.33402 -37.14296 35847 ft 449 kts 235°
2026-04-29 15:59 41.29404 -37.20672 35848 ft 448 kts 235°
2026-04-29 15:59 41.25416 -37.27021 35853 ft 447 kts 235°
2026-04-29 16:00 41.21426 -37.33358 35858 ft 446 kts 236°
2026-04-29 16:00 41.17441 -37.39676 35850 ft 446 kts 236°
2026-04-29 16:01 41.13457 -37.45981 35857 ft 446 kts 236°
2026-04-29 16:01 41.09472 -37.52269 35855 ft 445 kts 236°
2026-04-29 16:02 41.05486 -37.58551 35858 ft 445 kts 236°
2026-04-29 16:02 41.01501 -37.64814 35853 ft 444 kts 236°
2026-04-29 16:03 40.97523 -37.71055 35855 ft 443 kts 236°
2026-04-29 16:03 40.93552 -37.77269 35857 ft 441 kts 237°
2026-04-29 16:04 40.89621 -37.83412 35867 ft 440 kts 237°
2026-04-29 16:04 40.85670 -37.89573 35866 ft 438 kts 237°
2026-04-29 16:05 40.81731 -37.95702 35858 ft 437 kts 237°
2026-04-29 16:05 40.77801 -38.01803 35868 ft 435 kts 238°
2026-04-29 16:06 40.73888 -38.07868 35859 ft 432 kts 238°
2026-04-29 16:06 40.70000 -38.13881 35855 ft 430 kts 238°
2026-04-29 16:07 40.66128 -38.19857 35866 ft 427 kts 238°
2026-04-29 16:07 40.62274 -38.25798 35866 ft 426 kts 239°
2026-04-29 16:08 40.58433 -38.31709 35867 ft 425 kts 239°
2026-04-29 16:08 40.54595 -38.37600 35870 ft 423 kts 239°
2026-04-29 16:09 40.50764 -38.43467 35873 ft 422 kts 239°
2026-04-29 16:09 40.46933 -38.49330 35865 ft 423 kts 239°
2026-04-29 16:10 40.43093 -38.55193 35854 ft 424 kts 239°
2026-04-29 16:10 40.39246 -38.61050 35855 ft 424 kts 239°
2026-04-29 16:11 40.35388 -38.66915 35854 ft 425 kts 238°
2026-04-29 16:11 40.31527 -38.72772 35857 ft 425 kts 238°
2026-04-29 16:12 40.27661 -38.78629 35850 ft 425 kts 238°
2026-04-29 16:12 40.23790 -38.84478 35851 ft 425 kts 238°
2026-04-29 16:13 40.19911 -38.90332 35847 ft 426 kts 238°
2026-04-29 16:13 40.16059 -38.96133 35848 ft 425 kts 238°
2026-04-29 16:14 40.12183 -39.01958 35864 ft 424 kts 238°
2026-04-29 16:14 40.08303 -39.07776 35862 ft 424 kts 238°
2026-04-29 16:15 40.04429 -39.13575 35857 ft 423 kts 238°
2026-04-29 16:15 40.00554 -39.19367 35854 ft 423 kts 238°
2026-04-29 16:16 39.96687 -39.25134 35876 ft 421 kts 239°
2026-04-29 16:16 39.92838 -39.30862 35862 ft 419 kts 239°
2026-04-29 16:17 39.89013 -39.36547 35854 ft 416 kts 239°
2026-04-29 16:17 39.85204 -39.42193 35862 ft 414 kts 239°
2026-04-29 16:18 39.81413 -39.47809 35872 ft 412 kts 239°
2026-04-29 16:18 39.77631 -39.53403 35872 ft 412 kts 239°
2026-04-29 16:19 39.73849 -39.58985 35878 ft 411 kts 239°
2026-04-29 16:19 39.70062 -39.64563 35862 ft 412 kts 239°
2026-04-29 16:20 39.66271 -39.70136 35850 ft 412 kts 239°
2026-04-29 16:20 39.62470 -39.75716 35856 ft 413 kts 239°
2026-04-29 16:21 39.58658 -39.81301 35855 ft 414 kts 239°
2026-04-29 16:21 39.54835 -39.86889 35853 ft 415 kts 239°
2026-04-29 16:22 39.51004 -39.92480 35856 ft 415 kts 239°
2026-04-29 16:22 39.47165 -39.98074 35856 ft 416 kts 239°
2026-04-29 16:23 39.43321 -40.03665 35869 ft 416 kts 238°
2026-04-29 16:23 39.39478 -40.09244 35855 ft 415 kts 238°
2026-04-29 16:24 39.35660 -40.14775 35861 ft 415 kts 238°
2026-04-29 16:24 39.31818 -40.20333 35862 ft 414 kts 238°
2026-04-29 16:25 39.27982 -40.25870 35864 ft 414 kts 238°
2026-04-29 16:25 39.24146 -40.31401 35856 ft 414 kts 238°
2026-04-29 16:26 39.20306 -40.36925 35861 ft 413 kts 238°
2026-04-29 16:26 39.16468 -40.42438 35860 ft 413 kts 238°
2026-04-29 16:27 39.12628 -40.47944 35862 ft 413 kts 238°
2026-04-29 16:27 39.08791 -40.53435 35875 ft 412 kts 238°
2026-04-29 16:28 39.04957 -40.58912 35888 ft 412 kts 238°
2026-04-29 16:28 39.01119 -40.64385 35890 ft 412 kts 238°
2026-04-29 16:29 38.97276 -40.69855 35890 ft 412 kts 237°
2026-04-29 16:29 38.93429 -40.75324 35889 ft 413 kts 237°
2026-04-29 16:30 38.89578 -40.80789 35888 ft 413 kts 237°
2026-04-29 16:30 38.85725 -40.86247 35889 ft 413 kts 237°
2026-04-29 16:31 38.81868 -40.91700 35889 ft 413 kts 237°
2026-04-29 16:31 38.78011 -40.97142 35891 ft 412 kts 237°
2026-04-29 16:32 38.74182 -41.02536 35891 ft 412 kts 237°
2026-04-29 16:32 38.70329 -41.07956 35898 ft 411 kts 237°
2026-04-29 16:33 38.65171 -41.15195 35908 ft 411 kts 236°
2026-04-29 16:33 38.61318 -41.20592 35912 ft 411 kts 236°
2026-04-29 16:34 38.57489 -41.25947 35906 ft 410 kts 236°
2026-04-29 16:34 38.53611 -41.31361 35912 ft 410 kts 236°
2026-04-29 16:35 38.49783 -41.36696 35906 ft 410 kts 236°
2026-04-29 16:35 38.45927 -41.42059 35911 ft 410 kts 236°
2026-04-29 16:36 38.42077 -41.47408 35904 ft 409 kts 236°
2026-04-29 16:36 38.38226 -41.52748 35908 ft 409 kts 236°
2026-04-29 16:37 38.34379 -41.58073 35905 ft 408 kts 235°
2026-04-29 16:37 38.31184 -41.62490 35911 ft 408 kts 235°
2026-04-29 16:38 38.26677 -41.68710 36246 ft 407 kts 235°
2026-04-29 16:38 38.24762 -41.71345 36527 ft 405 kts 235°
2026-04-29 16:38 38.22858 -41.73964 36805 ft 402 kts 235°
2026-04-29 16:39 38.20971 -41.76558 37153 ft 397 kts 235°
2026-04-29 16:39 38.19105 -41.79120 37544 ft 392 kts 235°
2026-04-29 16:39 38.17268 -41.81642 37883 ft 387 kts 235°
2026-04-29 16:39 38.15435 -41.84161 37880 ft 389 kts 236°
2026-04-29 16:40 38.11774 -41.89183 37930 ft 384 kts 235°
2026-04-29 16:40 38.08151 -41.94145 37939 ft 383 kts 235°
2026-04-29 16:41 38.04537 -41.99086 37949 ft 381 kts 235°
2026-04-29 16:41 38.00925 -42.04011 37943 ft 381 kts 235°
2026-04-29 16:42 37.97300 -42.08905 37943 ft 381 kts 235°
2026-04-29 16:42 37.93691 -42.13761 37948 ft 381 kts 235°
2026-04-29 16:43 37.90054 -42.18654 37942 ft 382 kts 235°
2026-04-29 16:43 37.86396 -42.23562 37946 ft 383 kts 234°
2026-04-29 16:44 37.82741 -42.28464 37940 ft 383 kts 235°
2026-04-29 16:44 37.79077 -42.33374 37959 ft 384 kts 234°
2026-04-29 16:45 37.75407 -42.38282 37951 ft 385 kts 234°
2026-04-29 16:45 37.71731 -42.43200 37959 ft 385 kts 234°
2026-04-29 16:46 37.68039 -42.48119 37961 ft 386 kts 234°
2026-04-29 16:46 37.64345 -42.53033 37955 ft 386 kts 234°
2026-04-29 16:47 37.60651 -42.57941 37950 ft 385 kts 233°
2026-04-29 16:47 37.56971 -42.62826 37947 ft 384 kts 234°
2026-04-29 16:48 37.53300 -42.67690 37956 ft 383 kts 233°
2026-04-29 16:48 37.49634 -42.72553 37949 ft 383 kts 233°
2026-04-29 16:49 37.45964 -42.77398 37957 ft 382 kts 233°
2026-04-29 16:49 37.42297 -42.82236 37970 ft 382 kts 233°
2026-04-29 16:50 37.38623 -42.87074 37964 ft 382 kts 233°
2026-04-29 16:50 37.34974 -42.91873 37969 ft 382 kts 233°
2026-04-29 16:51 37.31300 -42.96699 37960 ft 382 kts 232°
2026-04-29 16:51 37.27628 -43.01515 37957 ft 381 kts 232°
2026-04-29 16:52 37.23962 -43.06316 37965 ft 381 kts 232°
2026-04-29 16:52 37.20297 -43.11106 37967 ft 381 kts 232°
2026-04-29 16:53 37.16628 -43.15896 37969 ft 380 kts 232°
2026-04-29 16:53 37.12965 -43.20669 37962 ft 380 kts 232°
2026-04-29 16:54 37.09303 -43.25435 37973 ft 379 kts 232°
2026-04-29 16:54 37.05642 -43.30195 37970 ft 379 kts 232°
2026-04-29 16:55 37.01982 -43.34943 37976 ft 379 kts 231°
2026-04-29 16:55 36.98317 -43.39693 37979 ft 379 kts 231°
2026-04-29 16:56 36.94651 -43.44436 37974 ft 379 kts 231°
2026-04-29 16:56 36.90987 -43.49171 37979 ft 379 kts 231°
2026-04-29 16:57 36.87321 -43.53901 37973 ft 379 kts 231°
2026-04-29 16:57 36.83653 -43.58623 37981 ft 378 kts 231°
2026-04-29 16:58 36.79992 -43.63332 37972 ft 378 kts 231°
2026-04-29 16:58 36.76334 -43.68031 37967 ft 377 kts 231°
2026-04-29 16:59 36.72679 -43.72720 37978 ft 377 kts 230°
2026-04-29 16:59 36.69023 -43.77402 37979 ft 377 kts 230°
2026-04-29 17:00 36.65370 -43.82073 37982 ft 376 kts 230°
2026-04-29 17:00 36.61718 -43.86737 37979 ft 376 kts 230°
2026-04-29 17:01 36.58068 -43.91392 37981 ft 376 kts 230°
2026-04-29 17:01 36.54417 -43.96042 37984 ft 376 kts 230°
2026-04-29 17:02 36.50788 -44.00656 37982 ft 375 kts 230°
2026-04-29 17:02 36.47134 -44.05295 37982 ft 376 kts 229°
2026-04-29 17:03 36.43478 -44.09929 37980 ft 375 kts 229°
2026-04-29 17:03 36.39819 -44.14563 37981 ft 376 kts 229°
2026-04-29 17:04 36.36160 -44.19189 37980 ft 375 kts 229°
2026-04-29 17:04 36.32501 -44.23806 37982 ft 375 kts 229°
2026-04-29 17:05 36.28845 -44.28416 37982 ft 375 kts 229°
2026-04-29 17:05 36.25185 -44.33022 37982 ft 375 kts 229°
2026-04-29 17:06 36.21525 -44.37627 37982 ft 375 kts 229°
2026-04-29 17:06 36.17862 -44.42224 37982 ft 375 kts 229°
2026-04-29 17:07 36.14817 -44.46040 37990 ft 375 kts 229°
2026-04-29 17:07 36.10529 -44.51405 37989 ft 375 kts 229°
2026-04-29 17:08 36.06859 -44.55992 37993 ft 375 kts 229°
2026-04-29 17:08 36.03184 -44.60579 37990 ft 376 kts 229°
2026-04-29 17:09 35.99506 -44.65166 37989 ft 376 kts 229°
2026-04-29 17:09 35.95822 -44.69753 37991 ft 376 kts 228°
2026-04-29 17:10 35.92136 -44.74334 37989 ft 376 kts 228°
2026-04-29 17:10 35.88444 -44.78915 37994 ft 377 kts 228°
2026-04-29 17:11 35.84745 -44.83500 37991 ft 377 kts 227°
2026-04-29 17:11 35.81042 -44.88082 37994 ft 377 kts 227°
2026-04-29 17:12 35.77335 -44.92663 37988 ft 378 kts 227°
2026-04-29 17:12 35.74250 -44.96471 37993 ft 378 kts 227°
2026-04-29 17:13 35.69898 -45.01835 37988 ft 379 kts 227°
2026-04-29 17:13 35.66170 -45.06423 37992 ft 379 kts 227°
2026-04-29 17:14 35.62465 -45.10979 37992 ft 379 kts 227°
2026-04-29 17:14 35.58730 -45.15563 37990 ft 380 kts 226°
2026-04-29 17:15 35.54992 -45.20144 37990 ft 380 kts 226°
2026-04-29 17:15 35.51251 -45.24724 37992 ft 380 kts 226°
2026-04-29 17:16 35.47506 -45.29301 37993 ft 380 kts 226°
2026-04-29 17:16 35.43758 -45.33875 37996 ft 380 kts 226°
2026-04-29 17:17 35.40005 -45.38448 38000 ft 380 kts 226°
2026-04-29 17:17 35.36253 -45.43016 38000 ft 380 kts 226°
2026-04-29 17:18 35.32500 -45.47577 38000 ft 380 kts 226°
2026-04-29 17:18 35.28747 -45.52133 38004 ft 380 kts 226°
2026-04-29 17:19 35.24988 -45.56690 37996 ft 380 kts 226°
2026-04-29 17:19 35.21227 -45.61242 37998 ft 380 kts 226°
2026-04-29 17:20 35.17462 -45.65793 38001 ft 381 kts 226°
2026-04-29 17:20 35.13691 -45.70345 38001 ft 381 kts 226°
2026-04-29 17:21 35.10553 -45.74127 38000 ft 381 kts 226°
2026-04-29 17:21 35.06775 -45.78675 38000 ft 382 kts 226°
2026-04-29 17:22 35.02990 -45.83226 38001 ft 382 kts 226°
2026-04-29 17:22 34.99208 -45.87768 38000 ft 382 kts 225°
2026-04-29 17:23 34.95423 -45.92307 38000 ft 382 kts 225°
2026-04-29 17:23 34.91636 -45.96840 37998 ft 381 kts 225°
2026-04-29 17:24 34.87850 -46.01369 38000 ft 382 kts 225°
2026-04-29 17:24 34.84058 -46.05898 38003 ft 382 kts 224°
2026-04-29 17:25 34.80261 -46.10427 37998 ft 382 kts 224°
2026-04-29 17:25 34.76457 -46.14956 38002 ft 382 kts 224°
2026-04-29 17:26 34.72651 -46.19481 38001 ft 383 kts 224°
2026-04-29 17:26 34.68838 -46.24010 38000 ft 383 kts 224°
2026-04-29 17:27 34.65020 -46.28538 38000 ft 384 kts 224°
2026-04-29 17:27 34.61197 -46.33066 38000 ft 383 kts 224°
2026-04-29 17:28 34.57404 -46.37555 38001 ft 383 kts 224°
2026-04-29 17:28 34.53578 -46.42074 37998 ft 384 kts 224°
2026-04-29 17:29 34.49749 -46.46593 38002 ft 384 kts 224°
2026-04-29 17:29 34.45914 -46.51110 38000 ft 384 kts 224°
2026-04-29 17:30 34.42075 -46.55626 37999 ft 385 kts 224°
2026-04-29 17:30 34.38236 -46.60135 38002 ft 384 kts 224°
2026-04-29 17:31 34.34397 -46.64640 37999 ft 384 kts 224°
2026-04-29 17:31 34.30558 -46.69138 37999 ft 384 kts 224°
2026-04-29 17:32 34.26721 -46.73628 37999 ft 384 kts 224°
2026-04-29 17:32 34.22883 -46.78115 38001 ft 384 kts 224°
2026-04-29 17:33 34.19042 -46.82598 38000 ft 384 kts 224°
2026-04-29 17:33 34.15194 -46.87083 38001 ft 384 kts 224°
2026-04-29 17:34 34.11346 -46.91562 37999 ft 385 kts 224°
2026-04-29 17:34 34.07488 -46.96049 38002 ft 385 kts 224°
2026-04-29 17:35 34.01694 -47.02773 37998 ft 386 kts 223°
2026-04-29 17:36 33.97705 -47.07102 38001 ft 386 kts 221°
2026-04-29 17:36 33.93650 -47.11343 38000 ft 386 kts 221°
2026-04-29 17:37 33.89593 -47.15594 38002 ft 387 kts 222°
2026-04-29 17:37 33.85534 -47.19869 38000 ft 388 kts 222°
2026-04-29 17:38 33.81477 -47.24150 38002 ft 389 kts 221°
2026-04-29 17:38 33.77433 -47.28413 38000 ft 390 kts 221°
2026-04-29 17:39 33.73354 -47.32708 38000 ft 390 kts 221°
2026-04-29 17:39 33.69270 -47.37005 38000 ft 391 kts 221°
2026-04-29 17:40 33.65179 -47.41303 37999 ft 391 kts 221°
2026-04-29 17:40 33.61084 -47.45599 38002 ft 391 kts 221°
2026-04-29 17:41 33.56991 -47.49888 38000 ft 391 kts 221°
2026-04-29 17:41 33.52896 -47.54172 38005 ft 390 kts 221°
2026-04-29 17:42 33.48809 -47.58441 38022 ft 390 kts 221°
2026-04-29 17:42 33.44723 -47.62707 38031 ft 390 kts 221°
2026-04-29 17:43 33.40634 -47.66971 38025 ft 390 kts 222°
2026-04-29 17:43 33.36540 -47.71231 38030 ft 390 kts 222°
2026-04-29 17:44 33.32446 -47.75486 38028 ft 390 kts 222°
2026-04-29 17:44 33.28354 -47.79736 38029 ft 390 kts 222°
2026-04-29 17:45 33.24258 -47.83982 38027 ft 390 kts 222°
2026-04-29 17:45 33.20159 -47.88227 38026 ft 390 kts 222°
2026-04-29 17:46 33.16063 -47.92465 38032 ft 390 kts 222°
2026-04-29 17:46 33.11962 -47.96698 38027 ft 390 kts 223°
2026-04-29 17:47 33.07859 -48.00930 38029 ft 390 kts 223°
2026-04-29 17:47 33.03755 -48.05158 38028 ft 390 kts 223°
2026-04-29 17:48 32.99642 -48.09389 38039 ft 390 kts 223°
2026-04-29 17:48 32.95556 -48.13589 38038 ft 391 kts 224°
2026-04-29 17:49 32.91437 -48.17816 38039 ft 391 kts 224°
2026-04-29 17:49 32.87317 -48.22040 38036 ft 391 kts 224°
2026-04-29 17:50 32.83193 -48.26262 38032 ft 391 kts 224°
2026-04-29 17:50 32.79066 -48.30481 38040 ft 391 kts 224°
2026-04-29 17:51 32.74937 -48.34695 38036 ft 391 kts 224°
2026-04-29 17:51 32.70809 -48.38906 38037 ft 391 kts 224°
2026-04-29 17:52 32.66680 -48.43113 38037 ft 391 kts 224°
2026-04-29 17:52 32.62551 -48.47312 38036 ft 391 kts 224°
2026-04-29 17:53 32.58421 -48.51508 38037 ft 391 kts 225°
2026-04-29 17:53 32.54292 -48.55697 38036 ft 390 kts 225°
2026-04-29 17:54 32.50164 -48.59881 38037 ft 390 kts 225°
2026-04-29 17:54 32.46036 -48.64059 38037 ft 390 kts 225°
2026-04-29 17:55 32.41902 -48.68236 38039 ft 391 kts 225°
2026-04-29 17:55 32.37765 -48.72413 38038 ft 391 kts 225°
2026-04-29 17:56 32.33625 -48.76589 38035 ft 391 kts 225°
2026-04-29 17:56 32.29485 -48.80758 38040 ft 391 kts 225°
2026-04-29 17:57 32.25377 -48.84891 38037 ft 390 kts 225°
2026-04-29 17:57 32.21242 -48.89045 38020 ft 390 kts 225°
2026-04-29 17:58 32.17103 -48.93197 37967 ft 391 kts 225°
2026-04-29 17:58 32.12956 -48.97352 37925 ft 391 kts 225°
2026-04-29 17:59 32.08806 -49.01506 37913 ft 391 kts 225°
2026-04-29 17:59 32.04659 -49.05650 37905 ft 390 kts 225°
2026-04-29 18:00 32.00517 -49.09785 37900 ft 390 kts 225°
2026-04-29 18:00 31.96376 -49.13915 37892 ft 390 kts 226°
2026-04-29 18:01 31.92233 -49.18042 37902 ft 390 kts 226°
2026-04-29 18:01 31.88089 -49.22165 37904 ft 392 kts 227°
2026-04-29 18:02 31.83893 -49.26338 37908 ft 397 kts 226°
2026-04-29 18:02 31.79656 -49.30545 37899 ft 399 kts 226°
2026-04-29 18:03 31.75403 -49.34757 37897 ft 399 kts 227°
2026-04-29 18:03 31.71151 -49.38966 37897 ft 400 kts 227°
2026-04-29 18:04 31.66896 -49.43169 37900 ft 399 kts 227°
2026-04-29 18:04 31.62648 -49.47362 37897 ft 399 kts 227°
2026-04-29 18:05 31.58403 -49.51549 37896 ft 398 kts 227°
2026-04-29 18:05 31.54161 -49.55726 37897 ft 398 kts 227°
2026-04-29 18:06 31.49926 -49.59893 37898 ft 397 kts 227°
2026-04-29 18:06 31.45717 -49.64027 37899 ft 397 kts 227°
2026-04-29 18:07 31.41453 -49.68212 37897 ft 397 kts 227°
2026-04-29 18:07 31.37243 -49.72339 37896 ft 398 kts 227°
2026-04-29 18:08 31.32997 -49.76495 37900 ft 398 kts 227°
2026-04-29 18:08 31.28743 -49.80654 37903 ft 399 kts 227°
2026-04-29 18:09 31.24484 -49.84815 37906 ft 399 kts 227°
2026-04-29 18:09 31.20915 -49.88297 37907 ft 400 kts 227°
2026-04-29 18:10 31.16665 -49.92438 37911 ft 401 kts 226°
2026-04-29 18:10 31.12381 -49.96606 37906 ft 401 kts 226°
2026-04-29 18:11 31.08095 -50.00773 37907 ft 401 kts 226°
2026-04-29 18:11 31.03800 -50.04942 37907 ft 402 kts 226°
2026-04-29 18:12 30.99504 -50.09108 37912 ft 402 kts 226°
2026-04-29 18:12 30.95206 -50.13268 37905 ft 402 kts 225°
2026-04-29 18:13 30.90907 -50.17428 37905 ft 402 kts 225°
2026-04-29 18:13 30.86604 -50.21587 37908 ft 402 kts 225°
2026-04-29 18:14 30.82294 -50.25747 37908 ft 403 kts 225°
2026-04-29 18:14 30.77978 -50.29905 37907 ft 403 kts 225°
2026-04-29 18:15 30.73659 -50.34064 37906 ft 404 kts 225°
2026-04-29 18:15 30.69331 -50.38226 37909 ft 404 kts 225°
2026-04-29 18:16 30.64993 -50.42392 37908 ft 405 kts 225°
2026-04-29 18:16 30.60649 -50.46557 37903 ft 405 kts 225°
2026-04-29 18:17 30.56303 -50.50721 37908 ft 405 kts 225°
2026-04-29 18:17 30.51981 -50.54856 37909 ft 405 kts 225°
2026-04-29 18:18 30.47627 -50.59018 37907 ft 406 kts 225°
2026-04-29 18:18 30.43269 -50.63178 37908 ft 406 kts 225°
2026-04-29 18:19 30.38911 -50.67335 37908 ft 406 kts 225°
2026-04-29 18:19 30.34549 -50.71489 37908 ft 406 kts 225°
2026-04-29 18:20 30.30183 -50.75641 37908 ft 406 kts 225°
2026-04-29 18:20 30.25818 -50.79789 37907 ft 406 kts 225°
2026-04-29 18:21 30.21457 -50.83927 37909 ft 406 kts 225°
2026-04-29 18:21 30.17095 -50.88062 37906 ft 405 kts 225°
2026-04-29 18:22 30.12734 -50.92190 37908 ft 405 kts 225°
2026-04-29 18:22 30.08408 -50.96283 37908 ft 405 kts 225°
2026-04-29 18:23 30.04050 -51.00401 37908 ft 405 kts 225°
2026-04-29 18:23 29.99779 -51.04608 37909 ft 402 kts 227°
2026-04-29 18:24 29.95669 -51.08996 37910 ft 403 kts 228°
2026-04-29 18:24 29.91562 -51.13409 37910 ft 404 kts 228°
2026-04-29 18:25 29.87429 -51.17826 37909 ft 406 kts 228°
2026-04-29 18:25 29.83283 -51.22237 37905 ft 406 kts 228°
2026-04-29 18:26 29.79126 -51.26648 37909 ft 406 kts 228°
2026-04-29 18:26 29.74966 -51.31057 37907 ft 407 kts 228°
2026-04-29 18:27 29.70802 -51.35465 37908 ft 407 kts 228°
2026-04-29 18:27 29.66637 -51.39867 37909 ft 406 kts 228°
2026-04-29 18:28 29.62476 -51.44262 37908 ft 406 kts 228°
2026-04-29 18:28 29.58345 -51.48621 37905 ft 406 kts 228°
2026-04-29 18:29 29.54191 -51.52999 37908 ft 405 kts 228°
2026-04-29 18:29 29.50028 -51.57380 37905 ft 406 kts 228°
2026-04-29 18:30 29.45868 -51.61752 37906 ft 406 kts 228°
2026-04-29 18:30 29.41705 -51.66124 37909 ft 406 kts 228°
2026-04-29 18:31 29.37549 -51.70488 37912 ft 405 kts 228°
2026-04-29 18:31 29.33386 -51.74845 37917 ft 405 kts 227°
2026-04-29 18:32 29.29219 -51.79204 37918 ft 406 kts 227°
2026-04-29 18:32 29.22951 -51.85755 37911 ft 407 kts 227°
2026-04-29 18:33 29.18762 -51.90126 37907 ft 408 kts 227°
2026-04-29 18:33 29.14567 -51.94495 37905 ft 408 kts 227°
2026-04-29 18:34 29.11077 -51.98128 37907 ft 409 kts 227°
2026-04-29 18:34 29.06161 -52.03242 37908 ft 409 kts 227°
2026-04-29 18:35 29.01946 -52.07621 37909 ft 410 kts 227°
2026-04-29 18:35 28.97726 -52.11999 37904 ft 410 kts 227°
2026-04-29 18:36 28.93497 -52.16380 37909 ft 411 kts 227°
2026-04-29 18:36 28.89259 -52.20765 37909 ft 412 kts 227°
2026-04-29 18:37 28.85012 -52.25158 37913 ft 412 kts 227°
2026-04-29 18:37 28.80787 -52.29522 37905 ft 413 kts 227°
2026-04-29 18:38 28.76523 -52.33916 37909 ft 414 kts 227°
2026-04-29 18:38 28.72249 -52.38318 37908 ft 414 kts 227°
2026-04-29 18:39 28.67968 -52.42723 37907 ft 415 kts 227°
2026-04-29 18:39 28.63683 -52.47128 37910 ft 415 kts 227°
2026-04-29 18:40 28.59395 -52.51529 37904 ft 415 kts 227°
2026-04-29 18:40 28.55108 -52.55928 37909 ft 415 kts 227°
2026-04-29 18:41 28.46505 -52.64733 37906 ft 416 kts 227°
2026-04-29 18:42 28.42198 -52.69135 37907 ft 416 kts 227°
2026-04-29 18:42 28.37888 -52.73534 37908 ft 417 kts 226°
2026-04-29 18:43 28.33572 -52.77934 37968 ft 418 kts 226°
2026-04-29 18:43 28.31415 -52.80131 38170 ft 416 kts 226°
2026-04-29 18:43 28.29259 -52.82325 38337 ft 416 kts 227°
2026-04-29 18:44 28.27110 -52.84511 38516 ft 415 kts 227°
2026-04-29 18:44 28.24964 -52.86692 38654 ft 415 kts 227°
2026-04-29 18:44 28.22841 -52.88848 38789 ft 415 kts 227°
2026-04-29 18:44 28.20692 -52.91033 38938 ft 415 kts 227°
2026-04-29 18:45 28.18544 -52.93215 39071 ft 415 kts 227°
2026-04-29 18:45 28.16396 -52.95395 39190 ft 415 kts 227°
2026-04-29 18:45 28.14247 -52.97575 39304 ft 415 kts 227°
2026-04-29 18:45 28.12095 -52.99757 39389 ft 416 kts 227°
2026-04-29 18:46 28.09939 -53.01940 39505 ft 416 kts 227°
2026-04-29 18:46 28.07783 -53.04123 39657 ft 415 kts 227°
2026-04-29 18:46 28.05633 -53.06298 39793 ft 414 kts 227°
2026-04-29 18:46 28.03487 -53.08469 39901 ft 413 kts 227°
2026-04-29 18:47 27.99194 -53.12810 39989 ft 415 kts 227°
2026-04-29 18:47 27.94870 -53.17172 40000 ft 418 kts 227°
2026-04-29 18:48 27.90519 -53.21561 39993 ft 420 kts 227°
2026-04-29 18:48 27.86148 -53.25963 39992 ft 421 kts 226°
2026-04-29 18:49 27.81767 -53.30371 39990 ft 422 kts 226°
2026-04-29 18:49 27.77380 -53.34777 39992 ft 422 kts 227°
2026-04-29 18:50 27.72992 -53.39180 39988 ft 422 kts 227°
2026-04-29 18:50 27.68608 -53.43576 39990 ft 421 kts 227°
2026-04-29 18:51 27.64230 -53.47961 39995 ft 421 kts 226°
2026-04-29 18:51 27.59855 -53.52336 39989 ft 420 kts 226°
2026-04-29 18:52 27.55512 -53.56676 39990 ft 420 kts 226°
2026-04-29 18:52 27.51144 -53.61035 39991 ft 419 kts 226°
2026-04-29 18:53 27.46773 -53.65392 39994 ft 419 kts 226°
2026-04-29 18:53 27.42407 -53.69743 39989 ft 419 kts 226°
2026-04-29 18:54 27.38040 -53.74089 39988 ft 419 kts 226°
2026-04-29 18:54 27.33678 -53.78421 39989 ft 418 kts 226°
2026-04-29 18:55 27.29314 -53.82752 39979 ft 418 kts 226°
2026-04-29 18:55 27.24950 -53.87080 39980 ft 418 kts 226°
2026-04-29 18:56 27.20580 -53.91409 39983 ft 419 kts 226°
2026-04-29 18:56 27.16207 -53.95736 39983 ft 419 kts 226°
2026-04-29 18:57 27.11832 -54.00060 39985 ft 419 kts 226°
2026-04-29 18:57 27.07456 -54.04379 39979 ft 419 kts 226°
2026-04-29 18:58 27.03079 -54.08697 39983 ft 419 kts 226°
2026-04-29 18:58 26.98699 -54.13012 39985 ft 418 kts 226°
2026-04-29 18:59 26.94325 -54.17317 39984 ft 419 kts 226°
2026-04-29 18:59 26.89940 -54.21627 39985 ft 419 kts 226°
2026-04-29 19:00 26.86291 -54.25209 39989 ft 420 kts 226°
2026-04-29 19:00 26.81186 -54.30217 39980 ft 420 kts 226°
2026-04-29 19:01 26.76791 -54.34524 39980 ft 420 kts 226°
2026-04-29 19:01 26.73104 -54.38133 39979 ft 420 kts 226°
2026-04-29 19:02 26.68699 -54.42441 39981 ft 420 kts 226°
2026-04-29 19:02 26.64295 -54.46744 39979 ft 421 kts 226°
2026-04-29 19:03 26.59887 -54.51046 39986 ft 421 kts 226°
2026-04-29 19:03 26.55506 -54.55317 39982 ft 421 kts 226°
2026-04-29 19:04 26.51092 -54.59614 39981 ft 421 kts 226°
2026-04-29 19:04 26.46676 -54.63907 39979 ft 421 kts 226°
2026-04-29 19:05 26.42258 -54.68200 39980 ft 421 kts 226°
2026-04-29 19:05 26.37842 -54.72491 39983 ft 421 kts 226°
2026-04-29 19:06 26.33422 -54.76776 39984 ft 421 kts 226°
2026-04-29 19:07 26.26796 -54.83191 39980 ft 421 kts 226°
2026-04-29 19:07 26.22377 -54.87465 39983 ft 421 kts 226°
2026-04-29 19:08 26.17957 -54.91732 39984 ft 421 kts 226°
2026-04-29 19:08 26.13537 -54.96000 39984 ft 421 kts 226°
2026-04-29 19:09 26.09113 -55.00267 39982 ft 421 kts 226°
2026-04-29 19:09 26.04685 -55.04530 39984 ft 421 kts 226°
2026-04-29 19:10 26.00253 -55.08793 39982 ft 421 kts 226°
2026-04-29 19:10 25.95815 -55.13060 39987 ft 421 kts 226°
2026-04-29 19:11 25.91382 -55.17317 39983 ft 421 kts 226°
2026-04-29 19:11 25.86952 -55.21565 39978 ft 420 kts 226°
2026-04-29 19:12 25.82527 -55.25805 39983 ft 420 kts 226°
2026-04-29 19:12 25.78105 -55.30040 39977 ft 420 kts 226°
2026-04-29 19:13 25.73683 -55.34267 39984 ft 420 kts 226°
2026-04-29 19:13 25.69259 -55.38494 39983 ft 420 kts 226°
2026-04-29 19:14 25.64829 -55.42721 39984 ft 420 kts 226°
2026-04-29 19:14 25.60395 -55.46947 39978 ft 420 kts 226°
2026-04-29 19:15 25.55995 -55.51138 39980 ft 420 kts 226°
2026-04-29 19:15 25.51565 -55.55353 39983 ft 420 kts 226°
2026-04-29 19:16 25.47134 -55.59564 39983 ft 420 kts 226°
2026-04-29 19:16 25.42700 -55.63773 39980 ft 420 kts 226°
2026-04-29 19:17 25.38267 -55.67977 39984 ft 419 kts 226°
2026-04-29 19:17 25.33838 -55.72174 39986 ft 419 kts 226°
2026-04-29 19:18 25.29410 -55.76367 39980 ft 419 kts 226°
2026-04-29 19:18 25.24984 -55.80552 39985 ft 419 kts 226°
2026-04-29 19:19 25.20562 -55.84731 39977 ft 418 kts 226°
2026-04-29 19:19 25.16144 -55.88901 39986 ft 418 kts 226°
2026-04-29 19:20 25.11729 -55.93064 39972 ft 417 kts 226°
2026-04-29 19:20 25.07321 -55.97217 39975 ft 416 kts 226°
2026-04-29 19:21 25.02924 -56.01355 39972 ft 415 kts 226°
2026-04-29 19:21 24.98623 -56.05579 39977 ft 413 kts 229°
2026-04-29 19:22 24.94484 -56.09946 39970 ft 411 kts 230°
2026-04-29 19:22 24.90388 -56.14279 39981 ft 411 kts 229°
2026-04-29 19:23 24.86248 -56.18620 39976 ft 411 kts 229°
2026-04-29 19:23 24.82103 -56.22938 39970 ft 410 kts 229°
2026-04-29 19:24 24.77962 -56.27240 39970 ft 409 kts 229°
2026-04-29 19:24 24.73829 -56.31530 39980 ft 408 kts 229°
2026-04-29 19:25 24.69702 -56.35806 39977 ft 407 kts 229°
2026-04-29 19:25 24.65578 -56.40077 39964 ft 407 kts 229°
2026-04-29 19:26 24.61460 -56.44341 39969 ft 407 kts 229°
2026-04-29 19:26 24.57341 -56.48601 39968 ft 407 kts 229°
2026-04-29 19:27 24.53223 -56.52855 39979 ft 406 kts 229°
2026-04-29 19:27 24.49104 -56.57107 39973 ft 406 kts 229°
2026-04-29 19:28 24.44990 -56.61348 39976 ft 406 kts 230°
2026-04-29 19:28 24.40875 -56.65587 39987 ft 406 kts 229°
2026-04-29 19:29 24.36758 -56.69826 39981 ft 406 kts 229°
2026-04-29 19:29 24.32639 -56.74061 39981 ft 406 kts 229°
2026-04-29 19:30 24.28517 -56.78296 39983 ft 406 kts 229°
2026-04-29 19:30 24.24395 -56.82527 39982 ft 406 kts 229°
2026-04-29 19:31 24.20272 -56.86755 39981 ft 406 kts 229°
2026-04-29 19:31 24.16146 -56.90982 39980 ft 406 kts 229°
2026-04-29 19:32 24.12022 -56.95203 39984 ft 406 kts 229°
2026-04-29 19:32 24.07897 -56.99421 39976 ft 406 kts 229°
2026-04-29 19:33 24.03769 -57.03637 39988 ft 406 kts 230°
2026-04-29 19:33 23.99632 -57.07860 39980 ft 407 kts 230°
2026-04-29 19:34 23.95499 -57.12073 39985 ft 406 kts 229°
2026-04-29 19:34 23.91374 -57.16276 39976 ft 405 kts 229°
2026-04-29 19:35 23.87284 -57.20438 39980 ft 404 kts 230°
2026-04-29 19:35 23.83169 -57.24621 39985 ft 404 kts 230°
2026-04-29 19:36 23.79056 -57.28800 39978 ft 404 kts 230°
2026-04-29 19:36 23.74940 -57.32980 39979 ft 404 kts 230°
2026-04-29 19:37 23.70822 -57.37155 39985 ft 404 kts 230°
2026-04-29 19:37 23.66705 -57.41325 39980 ft 404 kts 230°
2026-04-29 19:38 23.62592 -57.45489 39985 ft 404 kts 230°
2026-04-29 19:38 23.58475 -57.49653 39980 ft 403 kts 230°
2026-04-29 19:39 23.54363 -57.53810 39980 ft 403 kts 230°
2026-04-29 19:39 23.50246 -57.57965 39982 ft 403 kts 230°
2026-04-29 19:40 23.46126 -57.62121 39979 ft 404 kts 230°
2026-04-29 19:40 23.42004 -57.66275 39980 ft 404 kts 229°
2026-04-29 19:41 23.37876 -57.70430 39981 ft 404 kts 229°
2026-04-29 19:41 23.33746 -57.74584 39980 ft 404 kts 229°
2026-04-29 19:42 23.29614 -57.78739 39986 ft 405 kts 229°
2026-04-29 19:42 23.25506 -57.82864 39982 ft 405 kts 229°
2026-04-29 19:43 23.21369 -57.87014 39984 ft 405 kts 229°
2026-04-29 19:43 23.17233 -57.91161 39982 ft 405 kts 229°
2026-04-29 19:44 23.13093 -57.95308 39985 ft 405 kts 229°
2026-04-29 19:44 23.08951 -57.99447 39979 ft 405 kts 229°
2026-04-29 19:45 23.04806 -58.03592 39982 ft 405 kts 229°
2026-04-29 19:45 23.00657 -58.07739 39985 ft 406 kts 229°
2026-04-29 19:46 22.96499 -58.11890 39980 ft 406 kts 229°
2026-04-29 19:46 22.92340 -58.16039 39983 ft 407 kts 229°
2026-04-29 19:47 22.88172 -58.20190 39983 ft 407 kts 229°
2026-04-29 19:47 22.84003 -58.24340 39983 ft 407 kts 229°
2026-04-29 19:48 22.79827 -58.28493 39980 ft 408 kts 229°
2026-04-29 19:48 22.75649 -58.32645 39982 ft 408 kts 229°
2026-04-29 19:49 22.72172 -58.36098 39983 ft 408 kts 229°
2026-04-29 19:49 22.67990 -58.40246 39983 ft 408 kts 229°
2026-04-29 19:50 22.63806 -58.44394 39965 ft 408 kts 229°
2026-04-29 19:50 22.59616 -58.48544 39963 ft 408 kts 229°
2026-04-29 19:51 22.55426 -58.52690 39965 ft 408 kts 229°
2026-04-29 19:51 22.51234 -58.56835 39962 ft 408 kts 229°
2026-04-29 19:52 22.47039 -58.60978 39964 ft 408 kts 229°
2026-04-29 19:52 22.42844 -58.65117 39963 ft 408 kts 229°
2026-04-29 19:53 22.38650 -58.69254 39963 ft 408 kts 229°
2026-04-29 19:53 22.34454 -58.73389 39962 ft 408 kts 229°
2026-04-29 19:54 22.28152 -58.79590 39962 ft 408 kts 229°
2026-04-29 19:54 22.23951 -58.83721 39965 ft 408 kts 229°
2026-04-29 19:55 22.19779 -58.87819 39963 ft 408 kts 229°
2026-04-29 19:55 22.15579 -58.91943 39965 ft 408 kts 229°
2026-04-29 19:56 22.11346 -58.96095 39962 ft 409 kts 229°
2026-04-29 19:56 22.07165 -59.00192 39966 ft 409 kts 229°
2026-04-29 19:57 22.02951 -59.04318 39965 ft 409 kts 229°
2026-04-29 19:57 21.98734 -59.08443 39959 ft 410 kts 229°
2026-04-29 19:58 21.94511 -59.12571 39963 ft 410 kts 229°
2026-04-29 19:58 21.90285 -59.16699 39965 ft 410 kts 229°
2026-04-29 19:59 21.86055 -59.20826 39965 ft 410 kts 229°
2026-04-29 19:59 21.81824 -59.24951 39962 ft 410 kts 229°
2026-04-29 20:00 21.77618 -59.29049 39965 ft 411 kts 229°
2026-04-29 20:00 21.73347 -59.33206 39962 ft 411 kts 229°
2026-04-29 20:01 21.69103 -59.37333 39964 ft 411 kts 229°
2026-04-29 20:01 21.64887 -59.41430 39966 ft 411 kts 229°
2026-04-29 20:02 21.60643 -59.45550 39963 ft 411 kts 229°
2026-04-29 20:02 21.57086 -59.49000 39965 ft 411 kts 229°
2026-04-29 20:03 21.51980 -59.53594 39941 ft 423 kts 215°
2026-04-29 20:03 21.46655 -59.56358 39966 ft 422 kts 217°
2026-04-29 20:04 21.41843 -59.59838 39970 ft 414 kts 225°
2026-04-29 20:04 21.37475 -59.63821 39962 ft 411 kts 229°
2026-04-29 20:05 21.33232 -59.67944 39962 ft 412 kts 229°
2026-04-29 20:05 21.28990 -59.72076 39965 ft 412 kts 229°
2026-04-29 20:06 21.24731 -59.76199 39965 ft 413 kts 229°
2026-04-29 20:06 21.20463 -59.80314 39961 ft 413 kts 229°
2026-04-29 20:07 21.16190 -59.84430 39962 ft 413 kts 229°
2026-04-29 20:07 21.11918 -59.88543 39959 ft 413 kts 229°
2026-04-29 20:08 21.08365 -59.91960 39964 ft 413 kts 229°
2026-04-29 20:08 21.03393 -59.96740 39959 ft 411 kts 229°
2026-04-29 20:09 20.99157 -60.00859 39963 ft 410 kts 230°
2026-04-29 20:09 20.95127 -60.05169 39965 ft 409 kts 232°
2026-04-29 20:10 20.91142 -60.09527 39963 ft 410 kts 232°
2026-04-29 20:10 20.87140 -60.13883 39961 ft 411 kts 231°
2026-04-29 20:11 20.83153 -60.18196 39964 ft 411 kts 231°
2026-04-29 20:11 20.79130 -60.22535 39965 ft 411 kts 231°
2026-04-29 20:12 20.75101 -60.26876 39959 ft 411 kts 231°
2026-04-29 20:12 20.71074 -60.31211 39960 ft 411 kts 231°
2026-04-29 20:13 20.67699 -60.34842 39964 ft 411 kts 231°
2026-04-29 20:13 20.63017 -60.39875 39964 ft 411 kts 231°
2026-04-29 20:14 20.58989 -60.44201 39963 ft 411 kts 231°
2026-04-29 20:14 20.54963 -60.48522 39964 ft 410 kts 231°
2026-04-29 20:15 20.50937 -60.52838 39967 ft 410 kts 231°
2026-04-29 20:15 20.46910 -60.57155 39963 ft 411 kts 231°
2026-04-29 20:16 20.42880 -60.61470 39966 ft 410 kts 231°
2026-04-29 20:16 20.38852 -60.65778 39966 ft 410 kts 231°
2026-04-29 20:17 20.34822 -60.70087 39963 ft 410 kts 231°
2026-04-29 20:17 20.30787 -60.74397 39965 ft 410 kts 231°
2026-04-29 20:18 20.26754 -60.78701 39961 ft 410 kts 231°
2026-04-29 20:18 20.22721 -60.83003 39965 ft 410 kts 231°
2026-04-29 20:19 20.18687 -60.87303 39962 ft 410 kts 231°
2026-04-29 20:19 20.14648 -60.91602 39963 ft 410 kts 231°
2026-04-29 20:20 20.10612 -60.95897 39964 ft 410 kts 231°
2026-04-29 20:20 20.06579 -61.00185 39962 ft 410 kts 231°
2026-04-29 20:21 20.02545 -61.04471 39965 ft 410 kts 231°
2026-04-29 20:21 19.98506 -61.08758 39964 ft 410 kts 231°
2026-04-29 20:22 19.94459 -61.13053 39962 ft 411 kts 231°
2026-04-29 20:22 19.90403 -61.17352 39966 ft 412 kts 231°
2026-04-29 20:23 19.86342 -61.21654 39965 ft 412 kts 231°
2026-04-29 20:23 19.82278 -61.25953 39961 ft 413 kts 231°
2026-04-29 20:24 19.78213 -61.30252 39963 ft 413 kts 231°
2026-04-29 20:24 19.74173 -61.34524 39973 ft 413 kts 231°
2026-04-29 20:25 19.70072 -61.38852 39970 ft 413 kts 231°
2026-04-29 20:25 19.65999 -61.43149 39966 ft 413 kts 231°
2026-04-29 20:26 19.61491 -61.46949 39978 ft 424 kts 218°
2026-04-29 20:26 19.56429 -61.50169 39971 ft 425 kts 218°
2026-04-29 20:27 19.52183 -61.52870 39970 ft 425 kts 218°
2026-04-29 20:27 19.46305 -61.56639 39964 ft 425 kts 218°
2026-04-29 20:28 19.41252 -61.59897 39965 ft 425 kts 218°
2026-04-29 20:28 19.36200 -61.63155 39960 ft 426 kts 218°
2026-04-29 20:29 19.31141 -61.66415 39958 ft 425 kts 218°
2026-04-29 20:29 19.26088 -61.69667 39959 ft 425 kts 218°
2026-04-29 20:30 19.21036 -61.72918 39964 ft 425 kts 218°
2026-04-29 20:30 19.15980 -61.76168 39961 ft 425 kts 218°
2026-04-29 20:31 19.10916 -61.79419 39966 ft 426 kts 218°
2026-04-29 20:31 19.05850 -61.82671 39960 ft 426 kts 218°
2026-04-29 20:32 19.00778 -61.85924 39961 ft 426 kts 218°
2026-04-29 20:32 18.96588 -61.88608 39949 ft 421 kts 218°
2026-04-29 20:33 18.90760 -61.92338 39807 ft 420 kts 218°
2026-04-29 20:33 18.88250 -61.93949 39299 ft 422 kts 218°
2026-04-29 20:33 18.85743 -61.95554 38685 ft 420 kts 218°
2026-04-29 20:34 18.83247 -61.97150 38070 ft 419 kts 218°
2026-04-29 20:34 18.80754 -61.98744 37427 ft 419 kts 218°
2026-04-29 20:34 18.78264 -62.00335 36777 ft 418 kts 217°
2026-04-29 20:34 18.75776 -62.01924 36107 ft 418 kts 217°
2026-04-29 20:35 18.73321 -62.03494 35390 ft 419 kts 217°
2026-04-29 20:35 18.70821 -62.05093 34628 ft 421 kts 217°
2026-04-29 20:35 18.68308 -62.06700 33849 ft 424 kts 217°
2026-04-29 20:35 18.65778 -62.08316 33038 ft 427 kts 216°
2026-04-29 20:36 18.63231 -62.09940 32210 ft 429 kts 216°
2026-04-29 20:36 18.60665 -62.11576 31333 ft 432 kts 216°
2026-04-29 20:36 18.58084 -62.13221 30570 ft 433 kts 215°
2026-04-29 20:36 18.55520 -62.14852 29944 ft 429 kts 215°
2026-04-29 20:37 18.52976 -62.16470 29305 ft 425 kts 215°
2026-04-29 20:37 18.50456 -62.18073 28664 ft 422 kts 214°
2026-04-29 20:37 18.48797 -62.19127 28242 ft 419 kts 214°
2026-04-29 20:37 18.46311 -62.20708 27607 ft 416 kts 214°
2026-04-29 20:38 18.43848 -62.22275 26979 ft 412 kts 214°
2026-04-29 20:38 18.41402 -62.23831 26353 ft 409 kts 214°
2026-04-29 20:38 18.38977 -62.25373 25734 ft 406 kts 214°
2026-04-29 20:38 18.36568 -62.26903 25114 ft 403 kts 214°
2026-04-29 20:39 18.34176 -62.28423 24501 ft 400 kts 214°
2026-04-29 20:39 18.31805 -62.29930 23892 ft 397 kts 213°
2026-04-29 20:39 18.29449 -62.31426 23289 ft 394 kts 213°
2026-04-29 20:39 18.27110 -62.32911 22694 ft 391 kts 213°
2026-04-29 20:40 18.24792 -62.34383 22099 ft 388 kts 213°
2026-04-29 20:40 18.22489 -62.35844 21521 ft 385 kts 213°
2026-04-29 20:40 18.20199 -62.37296 20944 ft 383 kts 213°
2026-04-29 20:40 18.17925 -62.38736 20364 ft 380 kts 213°
2026-04-29 20:41 18.15666 -62.40168 19799 ft 378 kts 213°
2026-04-29 20:41 18.13423 -62.41589 19233 ft 375 kts 213°
2026-04-29 20:41 18.11194 -62.43001 18673 ft 373 kts 213°
2026-04-29 20:41 18.08980 -62.44404 18114 ft 370 kts 213°
2026-04-29 20:42 18.06781 -62.45795 17564 ft 368 kts 213°
2026-04-29 20:42 18.04597 -62.47177 17019 ft 365 kts 213°
2026-04-29 20:42 18.02426 -62.48550 16476 ft 363 kts 213°
2026-04-29 20:42 18.00271 -62.49913 15937 ft 360 kts 213°
2026-04-29 20:43 17.98131 -62.51267 15398 ft 358 kts 212°
2026-04-29 20:43 17.96003 -62.52611 14862 ft 356 kts 212°
2026-04-29 20:43 17.93888 -62.53948 14339 ft 354 kts 212°
2026-04-29 20:43 17.91785 -62.55276 13808 ft 352 kts 212°
2026-04-29 20:44 17.89691 -62.56599 13300 ft 350 kts 212°
2026-04-29 20:44 17.87610 -62.57913 12793 ft 348 kts 212°
2026-04-29 20:44 17.85545 -62.59217 12259 ft 346 kts 212°
2026-04-29 20:44 17.83487 -62.60514 11756 ft 344 kts 211°
2026-04-29 20:45 17.81443 -62.61803 11249 ft 342 kts 211°
2026-04-29 20:45 17.79410 -62.63086 10767 ft 340 kts 211°
2026-04-29 20:45 17.77423 -62.64340 10634 ft 326 kts 211°
2026-04-29 20:45 17.75508 -62.65546 10476 ft 315 kts 211°
2026-04-29 20:46 17.73656 -62.66712 10380 ft 308 kts 211°
2026-04-29 20:46 17.71832 -62.67861 10276 ft 304 kts 211°
2026-04-29 20:46 17.70035 -62.68993 10172 ft 298 kts 211°
2026-04-29 20:46 17.68288 -62.70093 10072 ft 288 kts 211°
2026-04-29 20:47 17.66581 -62.71169 9775 ft 285 kts 210°
2026-04-29 20:47 17.64891 -62.72234 9496 ft 282 kts 210°
2026-04-29 20:47 17.63212 -62.73292 9209 ft 280 kts 210°
2026-04-29 20:47 17.61545 -62.74341 8924 ft 279 kts 210°
2026-04-29 20:48 17.59889 -62.75382 8663 ft 276 kts 210°
2026-04-29 20:48 17.58254 -62.76411 8405 ft 273 kts 210°
2026-04-29 20:48 17.56629 -62.77434 8124 ft 272 kts 210°
2026-04-29 20:48 17.55011 -62.78452 7852 ft 270 kts 210°
2026-04-29 20:49 17.53402 -62.79464 7560 ft 269 kts 209°
2026-04-29 20:49 17.51819 -62.80459 7277 ft 268 kts 209°
2026-04-29 20:49 17.50205 -62.81474 6976 ft 266 kts 209°
2026-04-29 20:49 17.48612 -62.82474 6656 ft 267 kts 209°
2026-04-29 20:50 17.47021 -62.83422 6362 ft 265 kts 202°
2026-04-29 20:50 17.45292 -62.84060 6077 ft 263 kts 194°
2026-04-29 20:50 17.43539 -62.84577 5775 ft 262 kts 193°
2026-04-29 20:50 17.41761 -62.85089 5459 ft 261 kts 193°
2026-04-29 20:51 17.40038 -62.85596 5256 ft 261 kts 194°
2026-04-29 20:51 17.38265 -62.86130 4882 ft 267 kts 194°
2026-04-29 20:51 17.36478 -62.86675 4521 ft 268 kts 194°
2026-04-29 20:51 17.34692 -62.87223 4205 ft 267 kts 194°
2026-04-29 20:52 17.32918 -62.87770 3942 ft 264 kts 194°
2026-04-29 20:52 17.31189 -62.88307 3835 ft 255 kts 194°
2026-04-29 20:52 17.29521 -62.88826 3720 ft 246 kts 194°
2026-04-29 20:52 17.27898 -62.89311 3591 ft 237 kts 188°
2026-04-29 20:53 17.26320 -62.89174 3496 ft 223 kts 157°
2026-04-29 20:53 17.25055 -62.88360 3402 ft 207 kts 137°
2026-04-29 20:53 17.24055 -62.87339 3289 ft 196 kts 133°
2026-04-29 20:53 17.23116 -62.86322 3097 ft 194 kts 133°
2026-04-29 20:54 17.21554 -62.84176 2717 ft 180 kts 103°
2026-04-29 20:54 17.21610 -62.82907 2521 ft 175 kts 72°
2026-04-29 20:54 17.22269 -62.81888 2335 ft 165 kts 47°
2026-04-29 20:55 17.23056 -62.81080 2111 ft 153 kts 47°
2026-04-29 20:55 17.23790 -62.80318 1862 ft 142 kts 47°
2026-04-29 20:55 17.24476 -62.79611 1625 ft 137 kts 47°
2026-04-29 20:55 17.25150 -62.78909 1375 ft 136 kts 47°
2026-04-29 20:56 17.25813 -62.78220 1141 ft 133 kts 47°
2026-04-29 20:56 17.26484 -62.77521 1009 ft 141 kts 46°
2026-04-29 20:56 17.27189 -62.76827 917 ft 138 kts 44°
2026-04-29 20:56 17.27898 -62.76141 879 ft 139 kts 45°
2026-04-29 20:57 17.28597 -62.75437 817 ft 138 kts 46°
2026-04-29 20:57 17.29254 -62.74718 698 ft 138 kts 51°
2026-04-29 20:57 17.29830 -62.73920 539 ft 134 kts 56°
2026-04-29 20:57 17.30338 -62.73109 325 ft 135 kts 58°
2026-04-29 20:58 17.30846 -62.72302 176 ft 124 kts 57°
2026-04-29 20:58 17.31222 -62.71709 170 ft 59 kts 56°
2026-04-29 20:58 17.31361 -62.71487 167 ft 20 kts 57°
2026-04-29 20:58 17.31413 -62.71406 166 ft 5 kts 59°
2026-04-29 20:59 17.31411 -62.71374 166 ft 3 kts 128°
2026-04-29 20:59 17.31392 -62.71374 166 ft 3 kts 206°
2026-04-29 20:59 17.31341 -62.71404 163 ft 12 kts 210°
2026-04-29 20:59 17.31314 -62.71421 161 ft 4 kts 210°
2026-04-29 21:00 17.31277 -62.71444 160 ft 8 kts 210°
2026-04-29 21:00 17.31230 -62.71479 159 ft 10 kts 227°
2026-04-29 21:00 17.31186 -62.71548 159 ft 13 kts 237°
2026-04-29 21:00 17.31149 -62.71607 159 ft 5 kts 232°
2026-04-29 21:01 17.31117 -62.71617 159 ft 5 kts 169°
2026-04-29 21:01 17.31083 -62.71596 159 ft 6 kts 143°
2026-04-29 21:01 17.31049 -62.71572 159 ft 2 kts 146°
2026-04-29 21:01 17.31037 -62.71563 159 ft 0 kts 146°